Showing default

SJ-11-07, 40261

Orbit data source: Space-Track

SJ-11-07, 40261 is a payload satellite owned by CNSA (CN) in SSO that was launched on Sun, 28 Sep 2014 UTC via a CHANG ZHENG 2C launch vehicle from the Jiuquan Satellite Launch Center, China (JSC). Payload-class satellites include a variety of spacecraft equipped with specific instruments for various scientific and technological missions. These include communications satellites like Starlink; space stations such as the ISS; scientific satellites like the Hubble; Earth observation satellites from companies like Planet Labs, Umbra, and HawkEye 360; GPS; miniature CubeSats for education and research; and military/defense satellites.

Loading next visibility...
Identifier
40261, 2014-059A
Orbit
SSO
Country
Flag of CNCN / PRC
Related business
Manufacturer
DFH
Mission
Operational Defense Early Warn
Bus & Motor
CAST-2000?, Unknown motor
Mass
~300 kg wet, ~300 kg dry
Launch date (UTC)
2014-09-28 (11 years ago)
Launch vehicle
CHANG ZHENG 2C
Launch site
Jiuquan Satellite Launch Center, China (JSC)
Object type
Payload
Rocket body
Debris
Shape & HBR
Box + 2 Pan, 1.5 m
Radar Cross Section
2.045 m², Large (>1 m²)

Expand to show TLE details & history
Last TLE update: 7 hours ago

TLE from 7 hours ago
0 SJ-11-07
1 40261U 14059A   26061.93361411  .00000535  00000-0  11180-3 0  9992
2 40261  98.0051 134.3541 0011833 121.8814 238.3542 14.63614591609372
Epoch: 2026-03-02T22:24Z
TLE epoch observation values (Epoch: 2026-03-02T22:24:24.259Z)
Latitude
0.00003°
Longitude
-2.4669°
Altitude
688.914 km
Speed
7.51 km/s
True Right ascension
08h 57m 24s
True Declination
0° 00' 00"
Sunlit
Object was in full shadow at epoch
Visualization orbit readout
Latitude
Unknown
Longitude
Unknown
Altitude
Unknown
Speed
Unknown
Apparent Right ascension
Unknown
Apparent Declination
Unknown
Sunlit
N/A
Visualization observer readout
Local Sidereal Time
09:33:28
Azimuth
Unknown
Elevation
Unknown
Doppler factor
Unknown
Orbital elements
Apogee altitude
686.945 km
Perigee altitude
670.244 km
Semi-major axis
7,056.731 km
Eccentricity
0.00118
Inclination
98.0051°
RAAN
134.3541°
Arg. of periapsis
121.8814°
True anomaly
238.23886°
Mean anomaly
238.3542°
Eccentric anomaly
238.29652°
Mean motion
3.66132 °/min
Orbital period
98.33 mins
BSTAR
0.0001118
Loading maneuver chart data...
Computing Atmospheric mass density...
Loading historical data...
Loading historical data...
Loading historical data...
Loading historical data...
Loading historical data...
Loading historical data...
Loading historical data...
Other satellites on launch #59 in the year 2014 (2014-09-28 UTC)

Documentation

Showing up to 5 results
|